FREGAT DEB, 45963

Orbit data source: Space-Track

FREGAT DEB, 45963 is space debris in LEO originally from a launch on Mon, 18 Jul 2011 UTC launched from the Tyuratam Missile And Space Complex (TTMTR). Debris objects in space refer to the collection of defunct objects orbiting the Earth. Examples of debris include non-operational satellites, rocket bodies, and fragments generated from explosions, collisions, or faulty payload assembly.

Loading next visibility...
Identifier
45963, 2011-037FU
Orbit
LEO
Country
Flag of CISCIS
Related business
Manufacturer
Lavochkin
Mission
Spacecraft
Bus & Motor
Unknown
Mass
Unknown
Launch date (UTC)
2011-07-18 (14 years ago)
Launch vehicle
Unknown
Launch site
Tyuratam Missile And Space Complex (TTMTR)
Object type
Payload
Rocket body
Debris
Shape & HBR
Unknown shape, 0.1 m
Radar Cross Section
Small (<0.1 m²)

Expand to show TLE details & history
Last TLE update: 2 days ago

TLE from 2 days ago
0 FREGAT DEB
1 45963U 11037FU  25285.68988087  .00001325  00000-0  40603-2 0  9991
2 45963  51.3698  40.3607 1961942 147.4032 226.4761 10.32068057194019
Epoch: 2025-10-12T16:33Z
TLE epoch observation values (Epoch: 2025-10-12T16:33:25.707Z)
Latitude
-0°
Longitude
130.50019°
Altitude
3,885.567 km
Speed
5.741 km/s
True Right ascension
02h 41m 26s
True Declination
0° 00' 00"
Sunlit
Object was in full shadow at epoch
Visualization orbit readout
Latitude
Unknown
Longitude
Unknown
Altitude
Unknown
Speed
Unknown
Apparent Right ascension
Unknown
Apparent Declination
Unknown
Sunlit
N/A
Visualization observer readout
Local Sidereal Time
08:13:59
Azimuth
Unknown
Elevation
Unknown
Doppler factor
Unknown
Orbital elements
Apogee altitude
4,281.765 km
Perigee altitude
784.99 km
Semi-major axis
8,911.514 km
Eccentricity
0.19619
Inclination
51.3698°
RAAN
40.3607°
Arg. of periapsis
147.4032°
True anomaly
212.67122°
Mean anomaly
226.4761°
Eccentric anomaly
219.3488°
Mean motion
2.57998 °/min
Orbital period
139.54 mins
BSTAR
0.0040603
Loading maneuver chart data...
Computing Atmospheric mass density...
Loading historical data...
Loading historical data...
Loading historical data...
Loading historical data...
Loading historical data...
Loading historical data...
Loading historical data...

Documentation

Showing up to 5 results
|